Weather in Kabardinskaya

Russia / Krasnodar Krai     44°29′42″N   39°29′36″E
temp.,
°C
wind,
m/s
gust,
m/s
humid.,
%
clouds,
%
prec.,
mm/h
press.,
hPa
HPBL,
m
24 july, sat
sat2400:00+19ssw008580 0.1 101011
03:00+17wnw118284 0.1 101111
06:00+17ene008536 0.0 101112
09:00+24ne24590 0.0 1011886
12:00+29ne333618 0.0 10102254
15:00+29ene443881 0.0 10102115
18:00+26ese36510 0.0 1011754
21:00+19e22790 0.0 101229
25 july, sun
sun2500:00+18e11820 0.0 101211
03:00+16ene019415 0.4 101311
06:00+17e11950 0.1 101417
09:00+25ene37570 0.1 1013706
12:00+29e464358 0.3 10131626
15:00+28nne364975 0.3 10131051
18:00+27ene27600 0.0 1013656
21:00+23ene311620 0.0 1013491
26 july, mon
mon2600:00+19ene12760 0.0 101437
03:00+17nne01840 0.0 101411
06:00+17ssw11900 0.2 101421
09:00+24n11643 0.3 1014458
12:00+31nnw124635 0.0 10131276
15:00+33ne2337100 0.0 10121780
18:00+30ene474618 0.0 10121021
21:00+21ese288551 0.9 1013243
27 july, tue
tue2700:00+19w129546 0.0 101428
03:00+19sw119490 0.1 101411
06:00+19nw1198100 4.1 101417
09:00+22e0185100 4.2 1015325
12:00+27ene455193 0.0 10141164
15:00+28ene6846100 0.0 10141543
18:00+25ene510561 0.0 10161239
21:00+21e413630 0.0 1017851
28 july, wed
wed2800:00+19ene39650 0.0 1016336
03:00+16ene28840 0.0 1017294
06:00+16ene24860 0.0 1017135
09:00+26ene613390 0.0 10161576
12:00+30ene812280 0.0 10152377
15:00+30ene710270 0.0 10142453
18:00+27e610360 0.0 10141796
21:00+23e513450 0.0 1015740